Regional Weather Roundup
Issued by NWS

Home | Current Version | Previous Version | Graphics & Text | Print | Product List | Glossary On
Versions: 1 2 3 4 5 6 7 8 9 10 11 12 13 14 15 16 17 18 19 20 21 22 23 24 25 26 27 28 29 30 31 32 33 34 35 36 37 38 39 40 41 42 43 44 45 46 47 48 49 50
000
ASUS45 KBOI 171810
RWRID
WEATHER ROUNDUP FOR IDAHO
NATIONAL WEATHER SERVICE BOISE ID
1100 AM MST WED DEC 17 2014

NOTE: "FAIR" INDICATES FEW OR NO CLOUDS BELOW 12000 FEET
WITH NO SIGNIFICANT WEATHER AND/OR OBSTRUCTIONS TO VISIBILITY

IDZ012-014-171900-
SOUTHWEST IDAHO


CITY           SKY/WX    TMP DP  RH WIND       PRES   REMARKS
BOISE          CLOUDY    37  32  82 CALM      29.99F
CALDWELL       PTSUNNY   37  28  70 E9        30.02S WCI  31
MOUNTAIN HOME  SUNNY     37  31  79 SE17      30.01R WCI  27
$$

IDZ016-017-171900-
SOUTHCENTRAL IDAHO


CITY           SKY/WX    TMP DP  RH WIND       PRES   REMARKS
BURLEY         SUNNY     32  28  85 E7        29.99S WCI  26
JEROME         SUNNY     32  28  85 NE15      30.00R WCI  22
TWIN FALLS     SUNNY     37  28  70 CALM      29.99R
$$

IDZ019>023-171900-
SOUTHEAST IDAHO


CITY           SKY/WX    TMP DP  RH WIND       PRES   REMARKS
IDAHO FALLS    FOG       28  25  88 N6        30.03S VSB 1/8 WCI  22
POCATELLO      SUNNY     30  29  96 N3        30.03S
REXBURG        PTSUNNY   32  30  92 CALM      30.02S FOG
$$

IDZ006-010-011-018-031-032-171900-
CENTRAL IDAHO MOUNTAINS


CITY           SKY/WX    TMP DP  RH WIND       PRES   REMARKS
MCCALL         CLOUDY    29  27  92 CALM      29.94R
HAILEY         MOSUNNY   28  21  74 NW9       30.02R WCI  20
STANLEY          N/A     23  16  74 CALM      29.99S
SALMON         PTSUNNY   28  25  86 CALM      30.02S
CHALLIS        CLOUDY    25  21  85 CALM      30.02R
$$

IDZ002-004-006-007-026-171900-
NORTHERN IDAHO


CITY           SKY/WX    TMP DP  RH WIND       PRES   REMARKS
LEWISTON       PTSUNNY   40  33  76 E7        29.95R
LOWELL           N/A     36  30  79 N3        30.04S
COEUR D`ALENE  PTSUNNY   36  28  75 NE14      29.94S WCI  27
MULLAN PASS    MOSUNNY   29  26  89 VRB3      29.86S
$$


USA.gov is the U.S. government's official web portal to all federal, state and local government web resources and services.